Hourly Weather Roundup
Issued by NWS Central Illinois

Home | Current Version | Previous Version | Text Only | Print | Product List | Glossary On
Versions: 1 2 3 4 5 6 7 8 9 10 11 12 13 14 15 16 17 18 19 20 21 22 23 24 25 26 27 28 29 30 31 32 33 34 35 36 37 38 39 40 41 42 43 44 45 46 47 48 49 50
000
NZUS43 KILX 021310
HWRILX

AREA WEATHER ROUNDUP
NATIONAL WEATHER SERVICE, LINCOLN IL
800 AM CDT TUE JUN 02 2015


CITY           SKY/WX    TMP DP  RH WIND       PRES   REMARKS
BLOOMINGTON    FAIR      57  51  80 E7        30.20R
CHAMPAIGN      FAIR      57  49  74 E12       30.18R
DANVILLE       FAIR      56  50  81 E8        30.17R
DECATUR        FAIR      58  50  75 E9        30.17S
EFFINGHAM      CLOUDY    57  52  83 N3        30.18R HAZE
FLORA          CLOUDY    57  52  82 NE3       30.16S
GALESBURG      FAIR      55  47  74 E3        30.19S
JACKSONVILLE   CLOUDY    62  55  78 E7        30.16S
LACON          FAIR      53  43  70 CALM      30.19S
LAWRENCEVILLE  CLOUDY    57  51  80 N6        30.16R
LITCHFIELD     FAIR      57  53  84 E6        30.15S
$$


CITY           SKY/WX    TMP DP  RH WIND       PRES   REMARKS
LINCOLN        FAIR      59  51  74 E6        30.17S
MACOMB         FAIR      54  50  86 E5        30.21R
MATTOON        FAIR      54  49  83 E7        30.16R
MT CARMEL AP   CLOUDY    59  52  77 N5        30.15S
OLNEY-NOBLE AP CLOUDY    55  52  88 CALM      30.16S
PARIS          FAIR      56  52  86 E9        30.18S
PEORIA         FAIR      59  48  67 NE5       30.19R
PONTIAC        FAIR      55  49  80 E6        30.21R
RANTOUL        FAIR      58  51  76 E8        30.19R
ROBINSON       CLOUDY    56  51  85 N5        30.17R
SPRINGFIELD    FAIR      61  51  70 E8        30.17S
TAYLORVILLE    FAIR      55  50  82 E9        30.16S
$$

...REGIONAL REPORTS...


CITY           SKY/WX    TMP DP  RH WIND       PRES   REMARKS
CHICAGO O`HARE FAIR      53  43  68 CALM      30.21R
KANKAKEE       FAIR      54  49  84 CALM      30.21S
MOLINE         FAIR      56  45  66 E5        30.19S
MOUNT VERNON   CLOUDY    57  52  82 N3        30.16R
PITTSFIELD     FAIR      60  56  85 CALM      30.17R
QUINCY         CLOUDY    59  55  87 SE5       30.16R
ROCKFORD       PTSUNNY   52  41  66 VRB3      30.23S
$$


CITY           SKY/WX    TMP DP  RH WIND       PRES   REMARKS
BURLINGTON     FAIR      56  52  86 E6        30.18R
CEDAR RAPIDS   PTSUNNY   58  56  93 SE7       30.16F
DES MOINES     CLOUDY    58  53  84 S10       30.12F
KIRKSVILLE     CLOUDY    58  57  97 CALM      30.16R
OTTUMWA        PTSUNNY   57  56  96 SE6       30.15S
ST LOUIS       PTSUNNY   63  55  75 E5        30.15R
$$


CITY           SKY/WX    TMP DP  RH WIND       PRES   REMARKS
TERRE HAUTE    CLOUDY    54  49  83 E6        30.17R
EVANSVILLE     CLOUDY    58  55  90 N7        30.15R
INDIANAPOLIS   FAIR      55  46  71 E10       30.17R
LAFAYETTE      FAIR      55  49  80 NE9       30.19R
MADISON        FAIR      53  38  56 CALM      30.21R
MILWAUKEE      FAIR      53  39  59 NE3       30.23R
$$




USA.gov is the U.S. government's official web portal to all federal, state and local government web resources and services.